Altus AFB, OK

7:52 AM CDT on July 21, 2017 (GMT -0500)
Altus Air Force Base

Weather History for KLTS - May, 2012

Change the Weather History Date:

Saturday, May 12, 2012

  Actual Average Record
Temperature  
Mean Temperature 67 °F -  
Max Temperature 75 °F 81 °F 96 °F (2004)
Min Temperature 57 °F 57 °F 44 °F (2006)
Cooling Degree Days 2    
Growing Degree Days 17 (Base 50)    
Moisture  
Dew Point 56 °F    
Average Humidity 74    
Maximum Humidity 100    
Minimum Humidity 47    
Precipitation  
Precipitation 0.00 in - - ()
Sea Level Pressure  
Sea Level Pressure 30.15 in    
Wind  
Wind Speed 14 mph (NNE)    
Max Wind Speed 23 mph    
Max Gust Speed 26 mph    
Visibility 10 miles    
Events Rain    
Averages and records for this station are not official NWS values.
T = Trace of Precipitation, MM = Missing Value Source: NWS Daily Summary

Daily Weather History Graph

Daily Weather History Graph

Search for Another Location

Airport or City:

Trip Planner

Search our weather history database for the weather conditions in past years. The results will help you decide how hot, cold, wet, or windy it might be!

Date:

Astronomy

May. 12, 2012 Rise Set
Actual Time 6:36 AM CDT 8:31 PM CDT
Civil Twilight 6:08 AM CDT 8:58 PM CDT
Nautical Twilight 5:34 AM CDT 9:32 PM CDT
Astronomical Twilight 4:58 AM CDT 10:08 PM CDT
Moon 1:50 AM CDT (5/12) 1:10 PM CDT (5/12)
Length of Visible Light 14h 50m
Length of Day
13h 55m
Waning Gibbous, 52% of the Moon is Illuminated
May 12
Waning Gibbous
May 12
Last Quarter
May 20
New
May 28
First Quarter
Jun 4
Full

Hourly Weather History & Observations

Time (CDT) Temp. Dew Point Humidity Pressure Visibility Wind Dir Wind Speed Gust Speed Precip Events Conditions
12:17 AM 60.8 °F 55.4 °F 82% 30.08 in 10.0 mi NNE 13.8 mph - N/A   Light Drizzle
12:33 AM 60.8 °F 55.4 °F 82% 30.08 in 10.0 mi NNE 12.7 mph - N/A   Overcast
12:42 AM 60.8 °F 55.4 °F 82% 30.08 in 10.0 mi NNE 13.8 mph - N/A   Overcast
12:55 AM 60.4 °F 56.5 °F 87% 30.08 in 10.0 mi NNE 12.7 mph - 0.00 in   Overcast
1:07 AM 60.8 °F 57.2 °F 88% 30.09 in 10.0 mi North 13.8 mph - N/A Rain Light Rain
1:21 AM 59.0 °F 59.0 °F 100% 30.09 in 10.0 mi North 10.4 mph - N/A   Overcast
1:34 AM 59.0 °F 59.0 °F 100% 30.09 in 10.0 mi North 12.7 mph - N/A   Overcast
1:45 AM 59.0 °F 59.0 °F 100% 30.09 in 10.0 mi North 10.4 mph - N/A   Overcast
1:55 AM 59.7 °F 58.1 °F 94% 30.09 in 10.0 mi North 11.5 mph - 0.00 in   Overcast
2:33 AM 59.0 °F 57.2 °F 94% 30.08 in 10.0 mi North 16.1 mph - N/A   Overcast
2:55 AM 59.4 °F 57.9 °F 95% 30.08 in 10.0 mi NNE 13.8 mph - N/A   Overcast
3:20 AM 59.0 °F 57.2 °F 94% 30.08 in 10.0 mi NNE 16.1 mph - N/A   Overcast
3:55 AM 59.5 °F 58.1 °F 95% 30.09 in 10.0 mi NNE 15.0 mph - N/A   Overcast
4:38 AM 59.0 °F 57.2 °F 94% 30.09 in 10.0 mi NNE 16.1 mph - N/A   Overcast
4:55 AM 59.4 °F 57.9 °F 95% 30.09 in 10.0 mi NNE 15.0 mph - N/A   Overcast
5:10 AM 59.0 °F 59.0 °F 100% 30.09 in 10.0 mi NNE 16.1 mph - N/A   Overcast
5:13 AM 59.0 °F 59.0 °F 100% 30.09 in 10.0 mi NNE 15.0 mph - N/A   Overcast
5:55 AM 60.3 °F 58.8 °F 95% 30.11 in 10.0 mi NNE 11.5 mph - N/A   Overcast
6:55 AM 60.4 °F 59.0 °F 95% 30.13 in 10.0 mi North 12.7 mph - N/A   Overcast
7:30 AM 60.8 °F 59.0 °F 94% 30.16 in 10.0 mi North 13.8 mph - N/A   Overcast
7:55 AM 61.0 °F 59.0 °F 93% 30.16 in 10.0 mi North 10.4 mph - N/A   Overcast
8:31 AM 60.8 °F 59.0 °F 94% 30.17 in 10.0 mi NNE 15.0 mph - N/A   Overcast
8:34 AM 60.8 °F 59.0 °F 94% 30.17 in 10.0 mi NNE 15.0 mph - N/A   Overcast
8:55 AM 61.2 °F 58.3 °F 90% 30.18 in 10.0 mi NNE 15.0 mph - N/A   Overcast
9:02 AM 62.6 °F 59.0 °F 88% 30.17 in 10.0 mi NNE 17.3 mph - N/A   Mostly Cloudy
9:23 AM 66.2 °F 57.2 °F 73% 30.17 in 10.0 mi NNE 17.3 mph - N/A   Mostly Cloudy
9:55 AM 64.4 °F 57.2 °F 77% 30.18 in 10.0 mi NNE 18.4 mph 24.2 mph N/A   Overcast
9:56 AM 64.4 °F 57.2 °F 77% 30.18 in 10.0 mi NE 21.9 mph - N/A   Mostly Cloudy
10:31 AM 66.2 °F 57.2 °F 73% 30.19 in 10.0 mi NE 18.4 mph - N/A   Mostly Cloudy
10:36 AM 68.0 °F 57.2 °F 68% 30.19 in 10.0 mi NE 23.0 mph 26.5 mph N/A   Scattered Clouds
10:41 AM 68.0 °F 57.2 °F 68% 30.19 in 10.0 mi NE 18.4 mph 26.5 mph N/A   Mostly Cloudy
10:47 AM 66.2 °F 57.2 °F 73% 30.19 in 10.0 mi NE 18.4 mph - N/A   Mostly Cloudy
10:55 AM 67.5 °F 56.3 °F 67% 30.19 in 10.0 mi NE 19.6 mph 24.2 mph N/A   Mostly Cloudy
11:11 AM 68.0 °F 55.4 °F 64% 30.19 in 10.0 mi NE 17.3 mph 24.2 mph N/A   Scattered Clouds
11:23 AM 69.8 °F 55.4 °F 60% 30.19 in 10.0 mi NE 18.4 mph - N/A   Mostly Cloudy
11:55 AM 69.3 °F 56.1 °F 63% 30.20 in 10.0 mi NNE 17.3 mph 23.0 mph N/A   Mostly Cloudy
12:07 PM 69.8 °F 55.4 °F 60% 30.20 in 10.0 mi NE 15.0 mph 23.0 mph N/A   Scattered Clouds
12:55 PM 71.2 °F 54.0 °F 54% 30.18 in 10.0 mi NE 15.0 mph - N/A   Partly Cloudy
1:03 PM 73.4 °F 53.6 °F 50% 30.18 in 10.0 mi NE 15.0 mph - N/A   Mostly Cloudy
1:55 PM 72.1 °F 53.4 °F 52% 30.17 in 10.0 mi NE 11.5 mph - N/A   Mostly Cloudy
2:10 PM 75.2 °F 53.6 °F 47% 30.16 in 10.0 mi NNE 15.0 mph - N/A   Mostly Cloudy
2:32 PM 71.6 °F 53.6 °F 53% 30.17 in 10.0 mi NE 15.0 mph - N/A   Mostly Cloudy
2:35 PM 71.6 °F 53.6 °F 53% 30.17 in 10.0 mi NE 12.7 mph - N/A   Mostly Cloudy
2:55 PM 72.3 °F 53.4 °F 51% 30.16 in 10.0 mi ENE 9.2 mph - N/A   Mostly Cloudy
3:07 PM 71.6 °F 53.6 °F 53% 30.16 in 10.0 mi NE 12.7 mph - N/A   Mostly Cloudy
3:30 PM 71.6 °F 51.8 °F 50% 30.16 in 10.0 mi NE 8.1 mph - N/A   Mostly Cloudy
3:42 PM 71.6 °F 53.6 °F 53% 30.16 in 10.0 mi NNE 15.0 mph 21.9 mph N/A   Mostly Cloudy
3:46 PM 71.6 °F 53.6 °F 53% 30.16 in 10.0 mi North 10.4 mph - N/A   Mostly Cloudy
3:55 PM 72.0 °F 53.8 °F 53% 30.16 in 10.0 mi NNE 10.4 mph - N/A   Mostly Cloudy
4:03 PM 71.6 °F 53.6 °F 53% 30.15 in 10.0 mi NNE 11.5 mph - N/A   Mostly Cloudy
4:44 PM 73.4 °F 53.6 °F 50% 30.15 in 10.0 mi NNE 16.1 mph - N/A   Mostly Cloudy
4:47 PM 73.4 °F 53.6 °F 50% 30.15 in 10.0 mi NNE 17.3 mph - N/A   Mostly Cloudy
4:55 PM 72.0 °F 54.0 °F 53% 30.15 in 10.0 mi NNE 13.8 mph - N/A   Mostly Cloudy
5:15 PM 71.6 °F 53.6 °F 53% 30.15 in 10.0 mi NNE 11.5 mph - N/A   Scattered Clouds
5:55 PM 74.1 °F 54.1 °F 50% 30.14 in 10.0 mi NE 12.7 mph - N/A   Mostly Cloudy
6:55 PM 73.2 °F 52.9 °F 49% 30.15 in 10.0 mi NE 10.4 mph - N/A   Scattered Clouds
7:55 PM 71.2 °F 53.6 °F 54% 30.16 in 10.0 mi ENE 10.4 mph - N/A   Clear
8:55 PM 64.4 °F 56.1 °F 74% 30.18 in 10.0 mi ENE 4.6 mph - N/A   Clear
9:55 PM 61.3 °F 55.9 °F 82% 30.20 in 10.0 mi NE 3.5 mph - N/A   Clear
10:55 PM 59.0 °F 55.0 °F 87% 30.22 in 10.0 mi North 4.6 mph - N/A   Clear
11:55 PM 57.7 °F 55.4 °F 92% 30.22 in 10.0 mi NNE 5.8 mph - N/A   Clear